This is the latest recevied weather packets stored in our database for station/object K0APR. If no packets are shown the sender has not sent any weather packets the latest 10 day(s).
| Time | Temp. | Humidity | Pressure | Rain* | Wind** | Luminosity | Snow |
|---|---|---|---|---|---|---|---|
| 1787951165 | 27.78° C | 57% | 1016.1 hPa | 0 mm | - | 203 W/m² | - |
| 1787950861 | 27.78° C | 56% | 1016.5 hPa | 0 mm | - | 202 W/m² | - |
| 1787950555 | 27.78° C | 56% | 1016.5 hPa | 0 mm | - | 252 W/m² | - |
| 1787950252 | 27.78° C | 56% | 1016.8 hPa | 0 mm | - | 236 W/m² | - |
| 1787949948 | 28.33° C | 55% | 1016.5 hPa | 0 mm | - | 206 W/m² | - |
| 1787949649 | 28.33° C | 55% | 1016.8 hPa | 0 mm | - | 236 W/m² | - |
| 1787949349 | 27.78° C | 55% | 1016.8 hPa | 0 mm | - | 277 W/m² | - |
| 1787949044 | 27.78° C | 55% | 1016.8 hPa | 0 mm | - | 239 W/m² | - |
| 1787948740 | 27.78° C | 54% | 1016.8 hPa | 0 mm | - | 203 W/m² | - |
| 1787948434 | 27.78° C | 54% | 1016.8 hPa | 0 mm | - | 192 W/m² | - |
| 1787948130 | 27.78° C | 53% | 1016.8 hPa | 0 mm | - | 193 W/m² | - |
| 1787947829 | 27.78° C | 52% | 1016.8 hPa | 0 mm | - | 184 W/m² | - |
| 1787947528 | 27.78° C | 51% | 1017.2 hPa | 0 mm | - | 172 W/m² | - |
| 1787947223 | 27.78° C | 52% | 1017.2 hPa | 0 mm | - | 172 W/m² | - |
| 1787946922 | 27.78° C | 53% | 1017.2 hPa | 0 mm | - | 177 W/m² | - |
| 1787946629 | 27.78° C | 53% | 1017.2 hPa | 0 mm | - | 174 W/m² | - |
| 1787946316 | 28.33° C | 53% | 1017.2 hPa | 0 mm | - | 173 W/m² | - |
| 1787946015 | 28.89° C | 52% | 1017.2 hPa | 0 mm | - | 180 W/m² | - |
| 1787945715 | 28.89° C | 53% | 1017.2 hPa | 0 mm | - | 211 W/m² | - |
| 1787945410 | 28.89° C | 53% | 1017.5 hPa | 0 mm | - | 343 W/m² | - |
| 1787945106 | 28.33° C | 52% | 1017.5 hPa | 0 mm | - | 283 W/m² | - |
| 1787944803 | 28.33° C | 51% | 1017.9 hPa | 0 mm | - | 269 W/m² | - |
| 1787944498 | 28.89° C | 51% | 1017.5 hPa | 0 mm | - | 268 W/m² | - |
| 1787944194 | 28.89° C | 50% | 1017.9 hPa | 0 mm | - | 296 W/m² | - |
| 1787943893 | 28.89° C | 50% | 1017.9 hPa | 0 mm | - | 278 W/m² | - |
* Rain latest hour (hover to see other rain measurements)
** Current wind speed in m/s (hover to see current wind gust speed)